Location: Newark
(50.8086°N, 4.3114°E)
Time: 00:31:06
(UTC+00:00)

XW-2D - Pass Details

Date: 22 January 2020
Orbit: 507 x 528 km, 97.5° (Epoch: 27 February)

Event Time Altitude Azimuth Distance (km) Brightness Sun altitude
Rises 04:55:56 0° 24° (NNE) 2,639 ? -24.3°
Reaches altitude 10° 04:58:23 10° 40° (NE) 1,743 ? -23.9°
Maximum altitude 05:01:24 22° 93° (E) 1,140 ? -23.5°
Drops below altitude 10° 05:04:22 10° 147° (SSE) 1,724 ? -23.0°
Sets 05:06:46 0° 162° (SSE) 2,602 ? -22.6°
